This is the latest recevied weather packets stored in our database for station/object KI4NG. If no packets are shown the sender has not sent any weather packets the latest 10 day(s).
| Time | Temp. | Humidity | Pressure | Rain* | Wind** | Luminosity | Snow |
|---|---|---|---|---|---|---|---|
| 1777954096 | 17.22° C | 67% | 1013.1 hPa | 0 mm | - | 0 W/m² | - |
| 1777953794 | 17.22° C | 67% | 1012.8 hPa | 0 mm | - | 0 W/m² | - |
| 1777953490 | 17.22° C | 68% | 1012.7 hPa | 0 mm | - | 0 W/m² | - |
| 1777953186 | 17.22° C | 69% | 1012.6 hPa | 0 mm | - | 0 W/m² | - |
| 1777952883 | 17.22° C | 69% | 1012.7 hPa | 0 mm | - | 0 W/m² | - |
| 1777952580 | 17.22° C | 69% | 1013 hPa | 0 mm | - | 0 W/m² | - |
| 1777952276 | 17.22° C | 70% | 1012.9 hPa | 0 mm | - | 0 W/m² | - |
| 1777951974 | 17.22° C | 69% | 1013.1 hPa | 0 mm | - | 0 W/m² | - |
| 1777951672 | 17.22° C | 70% | 1013.1 hPa | 0 mm | - | 0 W/m² | - |
| 1777951367 | 17.22° C | 69% | 1013.2 hPa | 0 mm | - | 0 W/m² | - |
| 1777951065 | 17.22° C | 69% | 1012.9 hPa | 0 mm | - | 0 W/m² | - |
| 1777950761 | 17.78° C | 69% | 1012.8 hPa | 0 mm | - | 0 W/m² | - |
| 1777950458 | 17.78° C | 69% | 1012.7 hPa | 0 mm | - | 0 W/m² | - |
| 1777950155 | 17.78° C | 69% | 1012.9 hPa | 0 mm | - | 0 W/m² | - |
| 1777949850 | 17.78° C | 69% | 1012.9 hPa | 0 mm | - | 0 W/m² | - |
| 1777949549 | 17.22° C | 69% | 1012.7 hPa | 0 mm | - | 0 W/m² | - |
| 1777949247 | 17.22° C | 70% | 1012.9 hPa | 0 mm | - | 0 W/m² | - |
| 1777948944 | 17.22° C | 70% | 1013.1 hPa | 0 mm | - | 0 W/m² | - |
| 1777948641 | 17.22° C | 70% | 1012.9 hPa | 0 mm | - | 0 W/m² | - |
| 1777948338 | 16.67° C | 70% | 1012.9 hPa | 0 mm | - | 0 W/m² | - |
| 1777948036 | 17.22° C | 70% | 1012.9 hPa | 0 mm | - | 0 W/m² | - |
| 1777947732 | 17.22° C | 68% | 1013 hPa | 0 mm | - | 0 W/m² | - |
| 1777947429 | 16.67° C | 71% | 1012.9 hPa | 0 mm | - | 0 W/m² | - |
| 1777947126 | 17.22° C | 68% | 1013 hPa | 0 mm | - | 0 W/m² | - |
| 1777946822 | 17.22° C | 68% | 1013 hPa | 0 mm | - | 0 W/m² | - |
* Rain latest hour (hover to see other rain measurements)
** Current wind speed in m/s (hover to see current wind gust speed)